Theta_e
319 321 321 323 325 322 322 321 319 319 319 316 317 320 322 321 323 324 310 308 311 319 322 324 326 327 329 330 332 334 335 335 335 336 334 335 335 335 336 336 337 337 337 337 339 339 339 339 338
319 320 321 322 326 323 321 319 320 319 318 315 315 316 318 321 315 314 312 306 310 319 317 320 322 323 323 326 328 330 330 331 331 331 332 333 332 332 333 333 334 334 336 337 338 338 338 337 336
319 319 327 325 323 321 321 319 319 316 315 316 316 313 317 319 312 314 306 303 308 313 314 316 318 319 318 319 321 323 323 324 325 326 328 328 329 328 328 329 331 330 333 335 336 336 336 336 335
319 318 316 322 321 320 319 319 317 316 313 312 315 317 311 310 311 309 303 300 302 309 311 312 314 315 315 315 315 316 315 315 317 318 319 322 319 317 320 323 326 328 328 329 329 331 332 332 333
316 320 323 322 320 318 316 316 317 317 317 315 313 317 314 307 306 303 301 300 300 300 305 308 309 310 311 311 311 310 310 309 309 309 313 313 309 309 311 313 315 317 320 322 325 327 328 330 331
322 319 323 322 320 317 316 315 316 318 316 313 313 314 314 306 303 301 300 299 299 299 298 299 301 305 306 307 306 306 306 306 305 303 302 303 299 299 300 300 304 306 310 314 317 321 323 325 327
323 323 323 321 320 318 317 314 315 317 316 315 313 316 312 305 303 300 299 299 298 297 297 297 297 295 297 297 299 299 300 301 301 298 296 295 295 296 296 296 296 297 298 299 303 309 315 320 323
319 321 321 319 319 320 315 314 312 314 316 309 311 317 316 308 301 300 299 299 298 296 296 296 295 295 295 295 295 295 295 295 295 295 295 295 296 295 295 295 295 295 296 296 299 298 298 302 310
316 321 321 320 318 319 313 314 311 308 312 310 310 310 306 305 300 300 299 298 297 296 295 296 295 295 295 295 294 294 294 295 295 295 295 296 296 295 296 294 295 295 295 295 295 295 296 296 298
318 320 320 317 316 317 314 314 314 312 312 311 310 307 302 303 300 301 301 300 298 297 295 295 295 294 294 294 294 294 294 294 294 294 294 294 294 294 294 294 294 294 294 295 295 295 295 298 300
316 320 316 316 315 314 315 313 312 314 315 315 315 314 304 303 302 302 302 301 299 297 295 295 294 294 294 294 295 295 295 294 294 294 294 293 294 293 294 294 294 294 294 295 295 296 297 298 300
318 315 315 316 314 313 314 312 312 312 316 312 312 310 305 305 303 302 302 300 297 295 295 294 294 294 293 294 295 295 295 294 294 293 293 293 294 293 293 294 293 294 294 294 294 296 296 298 298
317 315 314 315 313 313 310 313 314 313 313 312 307 305 306 305 304 302 301 299 296 295 295 294 294 294 293 293 294 294 294 293 293 293 292 292 292 291 291 292 292 293 293 293 293 294 295 296 298
314 314 315 313 313 313 313 315 310 315 308 310 307 307 307 306 304 302 300 298 296 295 295 294 294 294 293 294 293 293 293 292 292 291 291 291 290 290 290 291 291 291 291 291 292 292 293 295 296
312 316 316 314 313 313 311 315 314 315 306 309 307 308 306 306 304 302 300 298 296 295 295 294 293 292 293 293 292 292 292 291 291 290 290 289 288 288 288 289 290 290 289 290 291 291 292 293 294
315 314 319 315 313 312 313 317 317 314 309 312 311 308 305 304 303 302 300 298 295 295 294 294 292 292 292 292 291 291 291 290 290 289 289 288 288 288 288 288 289 288 288 289 290 290 291 292 292
317 319 318 316 312 313 314 316 316 311 308 311 312 310 306 304 303 301 299 297 295 294 294 293 292 292 291 291 290 290 290 290 289 289 288 288 288 287 286 286 287 287 287 288 288 289 290 290 291
318 318 317 316 314 311 314 314 315 314 312 312 313 313 308 304 304 301 298 296 294 293 293 293 292 292 291 290 289 289 289 289 288 288 287 287 286 286 285 286 286 286 286 287 288 288 289 290 291
315 316 317 318 311 312 314 314 314 314 313 313 313 313 310 305 304 301 297 295 293 293 292 292 292 291 291 290 290 290 290 289 288 288 288 287 286 285 284 285 285 286 286 286 286 287 288 290 289
315 317 319 316 310 309 312 312 312 312 312 312 313 313 311 306 304 300 296 294 293 293 292 292 291 291 290 290 289 288 288 287 287 287 287 286 285 285 284 284 284 285 285 286 286 286 287 287 288
315 317 318 316 310 308 308 312 311 310 308 309 309 310 309 306 304 300 296 294 292 292 292 291 291 290 289 288 288 287 287 286 286 286 286 285 286 284 283 283 283 284 284 285 285 285 286 286 287
318 314 313 312 313 316 308 315 314 312 310 310 312 310 307 305 302 300 297 294 292 292 292 291 290 289 288 287 287 287 287 288 287 285 285 285 284 283 282 282 282 283 283 284 284 284 284 284 285
316 308 310 309 311 309 313 312 312 306 310 312 312 313 309 307 303 301 297 294 293 292 291 291 290 288 287 287 287 286 286 285 285 284 284 284 283 282 282 281 282 282 283 283 283 283 283 283 284
304 308 307 305 308 315 313 313 312 312 311 311 312 311 308 306 304 302 297 294 293 291 291 290 289 288 287 286 286 285 285 285 284 283 282 282 282 281 281 281 281 281 281 282 282 282 282 282 282
307 313 318 322 319 318 309 309 312 311 311 311 313 313 307 305 303 300 297 294 292 291 291 290 289 288 287 286 285 284 284 283 282 282 281 281 281 281 281 280 280 280 280 280 280 280 280 281 281
310 315 321 326 319 318 306 311 313 311 311 311 307 307 303 303 302 300 297 295 293 291 291 290 289 288 286 285 284 283 282 281 280 280 279 279 279 279 279 278 278 278 278 278 278 279 279 280 280
309 312 312 318 306 315 314 315 314 311 309 307 307 306 306 304 301 299 297 295 292 291 290 290 289 288 285 284 283 281 280 279 279 278 277 277 277 277 276 277 276 277 277 277 277 278 278 279 279
306 307 312 313 322 320 314 314 314 313 312 310 307 307 308 304 302 299 296 294 292 291 291 290 289 287 285 283 281 280 279 278 277 277 277 276 276 276 275 275 275 275 275 276 276 276 277 277 277
305 308 307 308 314 317 316 314 309 310 311 311 310 310 310 307 303 300 297 294 293 292 290 289 288 286 283 282 280 279 278 277 278 277 276 275 275 274 274 274 274 274 274 274 274 274 274 275 275
307 310 310 313 314 311 314 315 310 310 311 310 311 309 307 306 306 302 298 294 292 291 290 289 287 284 282 280 279 278 277 278 277 276 275 274 274 273 273 272 272 272 272 272 272 272 272 272 272
Wind_Speed
3 3 1 2 4 3 4 5 1 6 6 3 4 6 10 2 4 1 6 4 4 4 4 8 9 7 3 4 4 5 6 6 6 7 6 7 6 7 8 8 6 5 7 8 9 10 11 11 11
4 3 0 1 4 4 3 5 8 8 4 8 6 4 4 4 2 6 7 5 6 7 5 7 7 9 10 7 4 5 4 3 4 6 8 9 7 7 5 5 5 4 5 7 8 10 11 13 14
4 3 2 2 2 4 1 8 8 5 11 5 5 2 1 1 4 10 7 8 8 6 6 7 9 9 11 12 12 11 9 9 7 8 10 4 8 4 4 5 6 5 7 8 8 7 9 11 13
3 3 2 4 4 2 2 7 7 10 6 4 2 4 2 2 6 8 12 9 8 8 7 6 8 9 10 11 11 11 11 12 13 13 14 13 13 12 10 9 8 9 10 11 10 8 10 12 12
1 2 3 3 3 2 3 4 10 13 7 6 6 2 3 4 8 13 12 10 8 8 8 6 8 8 9 10 10 10 11 12 12 12 12 12 13 12 11 12 11 11 11 12 13 15 15 15 14
3 2 4 5 3 3 3 6 9 11 5 4 5 3 1 6 15 14 12 10 8 8 8 6 7 9 9 9 9 10 10 11 11 10 10 8 8 9 9 10 11 12 12 13 12 13 16 17 16
3 3 2 3 2 3 3 8 11 12 9 8 0 4 2 12 17 17 14 11 9 9 8 7 7 7 8 7 8 8 9 9 9 10 9 9 9 10 11 10 11 13 14 13 13 15 17 17 17
1 2 2 3 3 3 5 9 2 11 11 3 4 6 4 14 20 17 14 12 10 9 8 7 7 6 6 6 7 8 8 7 8 8 9 9 10 10 11 11 12 12 13 13 13 16 18 20 21
1 3 4 3 5 2 6 9 5 1 5 5 8 4 2 15 22 19 16 13 12 10 10 9 9 8 7 6 6 8 9 9 9 8 8 9 9 10 11 13 14 14 14 14 14 16 18 19 19
3 3 3 1 3 3 5 9 5 6 8 8 8 11 6 22 24 23 22 20 18 15 11 10 10 9 8 6 6 6 6 7 7 8 7 8 9 10 11 12 13 14 15 15 17 17 17 15 14
1 3 1 3 5 4 4 5 5 7 12 14 15 13 16 24 26 25 24 22 20 16 13 12 12 10 8 7 5 4 4 4 6 7 7 8 8 9 10 11 12 14 16 16 17 15 13 15 14
3 4 3 1 2 4 5 3 5 14 18 2 6 6 20 21 26 29 27 25 22 19 16 13 12 11 10 8 6 5 4 4 4 5 6 7 8 10 11 11 13 14 15 16 14 14 16 15 15
5 3 4 4 4 6 3 10 9 15 17 11 5 8 16 19 26 27 25 23 22 21 18 15 13 11 11 9 7 5 4 3 3 4 6 7 8 10 11 11 11 12 13 14 15 15 16 16 16
2 4 7 5 5 6 6 6 3 5 3 10 11 14 15 19 27 25 28 28 25 22 20 17 15 13 12 9 7 5 4 2 2 2 3 6 8 9 9 11 12 13 15 16 16 16 16 16 17
1 6 7 9 4 5 4 8 12 17 6 9 13 14 16 19 24 33 33 31 29 25 22 20 17 16 13 11 8 5 4 2 1 2 4 6 8 9 12 12 13 14 17 17 16 17 16 17 18
3 3 4 5 7 2 4 15 10 4 9 14 15 14 16 20 29 30 29 29 29 26 25 21 19 17 14 11 8 7 5 3 1 2 3 6 9 12 12 12 12 14 15 15 16 17 19 19 20
5 10 9 5 9 3 11 16 5 6 8 16 18 17 16 17 22 29 30 30 29 28 24 20 17 16 14 12 10 8 7 5 3 4 5 8 11 12 12 12 12 13 14 14 15 16 17 21 23
11 7 8 10 5 9 11 21 22 22 16 25 25 19 18 18 24 31 31 31 29 27 25 23 21 18 17 14 10 8 7 6 5 5 6 9 10 11 12 13 13 13 14 14 14 16 16 19 22
7 8 16 15 4 5 16 20 25 24 21 26 25 21 18 21 20 27 30 29 28 27 26 25 22 20 16 13 10 7 6 6 6 7 10 12 12 12 13 13 13 12 13 15 15 16 17 16 19
8 13 20 13 2 6 14 21 24 24 26 25 25 23 16 16 16 21 27 31 32 31 28 26 24 21 19 14 12 8 7 7 8 10 11 11 12 14 15 13 13 13 13 13 13 15 17 16 9
11 17 14 10 6 7 12 17 7 8 10 14 21 19 14 16 17 19 25 33 32 32 33 30 26 23 20 17 14 11 9 9 8 9 8 10 15 15 13 13 14 13 13 14 15 14 14 15 15
13 9 11 8 5 11 4 19 11 9 11 13 21 12 12 15 15 16 22 31 36 36 32 29 26 23 20 19 16 13 12 12 10 7 10 13 14 14 13 14 14 15 14 16 16 14 16 16 18
5 2 4 3 8 6 12 10 9 2 6 18 20 10 15 14 15 18 19 29 33 31 32 29 26 23 22 22 18 14 14 12 9 9 13 14 16 16 15 15 15 17 16 17 18 18 19 19 21
9 3 2 1 3 9 16 14 9 5 6 8 12 10 9 12 13 13 18 23 27 30 30 29 28 25 23 22 21 19 15 12 12 12 10 12 14 14 14 14 16 17 17 17 18 19 20 23 25
5 4 6 6 5 12 3 8 20 15 14 13 19 9 8 9 11 13 16 20 27 33 34 32 31 29 25 23 21 18 16 15 14 12 12 12 13 14 16 16 16 17 18 19 20 22 23 25 27
12 8 6 11 13 21 7 11 14 10 14 17 8 5 5 8 8 12 16 22 27 31 34 34 34 31 27 24 21 18 16 13 13 12 10 12 15 16 15 16 16 18 20 21 21 24 25 25 28
8 8 3 3 2 7 12 24 9 7 10 8 14 12 14 11 11 13 15 22 26 31 37 39 36 31 28 25 21 19 16 14 11 11 12 14 14 15 15 16 18 19 20 22 22 24 27 27 29
4 4 4 3 6 16 24 29 18 10 15 9 11 15 15 10 10 12 14 22 26 30 33 35 35 35 29 24 20 17 16 14 11 11 12 12 14 14 15 16 17 19 20 22 22 24 26 28 30
6 6 5 3 5 9 18 18 3 5 5 11 13 14 11 12 13 12 14 21 24 25 31 34 35 33 29 24 20 18 16 14 11 10 10 12 13 14 15 16 16 18 20 22 23 25 26 29 32
9 15 18 9 11 9 13 26 8 5 4 4 6 6 8 9 12 11 13 19 23 28 31 34 34 32 29 25 21 18 15 13 11 10 10 11 13 14 14 16 17 18 20 21 23 25 26 29 32
Wind_Direction
141 146 70 244 231 237 156 174 205 172 180 124 139 202 209 1 202 325 130 97 110 98 64 42 52 62 73 62 82 76 88 83 69 59 43 34 40 40 36 24 11 350 326 322 324 325 322 322 321
141 126 231 235 252 240 143 159 199 180 122 128 138 142 189 205 135 137 150 148 147 136 84 65 78 64 62 72 86 85 78 92 71 59 63 51 43 48 36 16 356 349 353 338 326 316 312 307 308
156 149 244 235 249 274 246 186 182 158 146 161 155 247 185 185 157 153 139 147 147 136 97 74 72 65 62 61 62 66 60 57 55 61 68 58 54 313 334 328 11 342 6 12 359 322 301 298 298
175 163 155 250 255 235 286 180 165 148 185 219 215 202 200 189 159 163 148 143 131 146 131 95 79 73 68 67 66 63 58 57 59 56 55 60 54 40 28 16 332 311 305 298 305 319 288 288 291
160 221 226 239 229 254 217 195 179 176 173 177 186 197 222 174 146 147 151 146 134 138 149 100 99 89 78 72 70 69 65 60 58 56 57 50 43 34 30 23 16 2 338 326 320 299 294 289 287
201 275 238 254 214 232 213 187 186 206 195 145 203 223 212 148 158 161 158 152 142 148 154 151 132 107 95 85 76 72 71 68 64 59 56 44 28 18 360 360 350 341 332 312 314 316 302 298 298
263 232 288 287 281 243 207 164 205 207 216 217 12 233 111 173 171 165 163 159 161 165 161 152 131 117 104 104 95 85 81 77 72 60 55 44 32 21 13 2 349 337 326 321 313 299 293 290 292
219 245 202 206 223 245 165 177 212 210 220 77 197 239 211 189 172 166 164 166 166 166 165 161 153 137 132 116 106 99 95 86 72 57 44 37 33 25 16 9 3 357 352 344 331 311 304 298 293
225 234 244 226 196 153 161 204 166 151 206 208 201 241 100 163 169 170 172 176 176 174 173 169 164 162 149 131 116 100 93 82 73 62 47 36 26 18 10 1 353 349 347 344 340 334 325 315 306
241 253 250 218 191 235 197 223 196 204 203 226 226 216 169 168 177 183 188 189 189 183 178 175 174 173 163 150 133 113 93 78 65 52 40 31 20 12 6 357 354 351 348 347 344 340 338 335 325
188 268 193 232 233 219 225 228 204 234 239 236 224 215 186 182 189 195 200 200 193 187 184 182 182 178 167 161 148 131 110 83 57 39 28 19 16 8 3 356 353 354 351 350 347 343 341 330 322
241 245 236 270 190 190 221 155 223 226 248 0 270 212 185 190 196 201 201 196 188 185 186 184 182 176 172 163 157 149 134 100 69 40 25 20 12 4 1 357 351 351 345 343 340 336 332 327 320
228 212 226 253 252 240 199 240 252 246 248 240 244 195 198 202 204 205 203 199 193 189 185 185 183 182 181 176 172 157 133 106 82 44 10 8 5 359 352 347 345 341 338 335 334 332 330 325 319
172 257 262 265 249 238 235 247 220 247 203 222 225 225 214 211 206 200 200 198 196 192 188 184 185 187 186 183 173 159 144 119 77 31 348 348 353 348 343 341 339 336 337 332 329 328 326 320 316
326 290 275 224 223 235 212 255 235 255 197 234 227 228 221 218 207 209 203 198 193 193 188 190 187 189 187 186 179 174 175 155 110 358 342 334 343 341 340 334 333 330 332 328 326 326 324 320 314
239 249 256 160 176 167 210 277 254 269 229 245 239 228 219 217 213 214 208 202 197 193 192 188 190 189 189 189 189 197 199 187 209 284 301 318 327 325 329 327 320 319 322 322 324 326 322 317 313
213 272 231 269 210 159 213 278 261 205 233 263 258 246 230 220 214 215 208 204 198 193 190 190 191 191 191 193 197 202 204 204 241 270 303 307 310 310 315 309 306 311 315 317 317 318 317 314 312
263 247 254 263 185 215 232 258 278 274 255 263 270 261 242 221 216 209 206 203 198 194 192 191 192 192 193 195 199 207 211 222 250 250 278 282 294 299 305 309 309 307 306 311 313 312 311 309 310
266 259 261 267 200 245 256 262 268 280 275 263 270 263 248 233 225 209 204 200 194 194 193 195 193 194 192 194 197 202 197 212 250 245 275 274 291 297 302 302 302 299 302 309 315 312 312 312 315
233 260 264 280 250 220 275 273 273 268 268 270 271 269 251 240 224 206 200 199 197 195 196 197 198 197 198 198 199 196 202 231 236 248 262 266 290 294 298 300 299 295 298 305 311 315 308 306 309
228 236 256 267 323 237 293 275 241 256 264 271 261 259 250 228 215 203 202 202 198 197 197 197 198 199 201 202 202 211 232 249 251 249 256 274 286 293 294 288 286 296 305 303 299 300 297 296 296
240 231 245 266 295 282 5 291 279 252 245 264 273 239 222 217 214 204 202 202 201 200 197 198 197 198 201 204 206 205 214 224 227 251 266 283 289 294 287 289 293 301 296 289 289 289 284 283 280
250 110 173 209 257 316 257 268 280 167 241 259 262 250 222 210 202 202 203 204 202 196 194 196 196 195 199 204 206 206 220 236 253 271 281 285 289 286 289 290 294 292 286 285 284 284 279 273 273
135 120 145 154 258 254 259 225 275 242 212 246 265 229 203 199 197 206 203 201 200 197 196 193 194 195 194 196 201 208 216 224 236 248 262 271 273 286 283 283 285 285 287 286 286 284 280 279 276
195 180 277 256 225 264 152 234 262 283 242 233 256 251 188 183 186 189 191 193 193 196 197 192 193 195 194 196 201 205 212 223 237 244 252 265 279 275 275 285 294 295 295 293 289 284 279 277 274
184 217 204 261 277 288 113 251 278 227 252 247 269 260 195 213 207 203 196 196 195 195 198 196 195 195 193 195 199 202 209 217 229 243 258 267 269 274 286 293 295 294 294 292 288 284 279 277 275
164 199 234 288 105 280 259 262 239 186 251 250 253 246 241 233 207 206 203 199 197 198 198 196 193 194 192 193 194 199 203 212 222 236 249 261 269 282 290 290 296 298 293 288 286 282 282 280 276
225 140 139 200 260 258 276 281 279 239 244 212 237 239 240 223 215 210 205 205 203 201 201 199 195 191 189 190 193 195 200 210 222 240 252 265 278 283 289 294 299 298 294 290 288 285 283 279 277
171 204 227 311 227 254 265 270 102 171 263 207 219 232 240 227 217 209 212 206 209 203 199 195 194 189 183 185 188 192 200 209 224 244 263 272 281 288 294 301 300 297 295 291 287 283 281 279 278
252 232 215 225 228 235 259 270 118 58 146 183 235 242 236 233 218 214 211 204 202 203 198 195 192 186 181 183 185 192 199 208 223 241 260 276 287 294 303 305 301 296 295 295 292 291 286 284 283